Change the Weather History Date:

Friday, November 23, 2012

  Actual Average (KJYM) Record (KJYM)
Temperature  
Mean Temperature 42 °F -  
Max Temperature 52 °F 42 °F 66 °F (1999)
Min Temperature 30 °F 27 °F -3 °F (1956)
Degree Days  
Heating Degree Days 23    
Moisture  
Dew Point 31 °F    
Average Humidity 76    
Maximum Humidity 90    
Minimum Humidity 65    
Precipitation  
Precipitation 0.00 in - - ()
Sea Level Pressure  
Sea Level Pressure 29.89 in    
Wind  
Wind Speed 17 mph (West)    
Max Wind Speed 25 mph    
Max Gust Speed 37 mph    
Visibility 9 miles    
Events Rain , Snow    
Averages and records for this station are not official NWS values.
T = Trace of Precipitation, MM = Missing Value Source: NWS Daily Summary

Daily Weather History Graph

Daily Weather History Graph

Search for Another Location

Airport or City:

Trip Planner

Search our weather history database for the weather conditions in past years. The results will help you decide how hot, cold, wet, or windy it might be!

Date:

Astronomy

Nov. 23, 2012 Rise Set
Actual Time 7:40 AM EST 5:13 PM EST
Civil Twilight 7:09 AM EST 5:43 PM EST
Nautical Twilight 6:35 AM EST 6:17 PM EST
Astronomical Twilight 6:01 AM EST 6:51 PM EST
Moon 2:30 PM EST (11/23) 2:54 AM EST (11/23)
Length of Visible Light 10h 34m
Length of Day
9h 33m
Waxing Gibbous, 79% of the Moon is Illuminated
Nov 23
Waxing Gibbous
Nov 28
Full
Dec 6
Last Quarter
Dec 13
New
Dec 20
First Quarter

Hourly Weather History & Observations

Time (EST) Temp. Windchill Dew Point Humidity Pressure Visibility Wind Dir Wind Speed Gust Speed Precip Events Conditions
12:15 AM 54.3 °F - 42.8 °F 65% 29.79 in 10.0 mi SW 16.1 mph 21.9 mph N/A   Overcast
12:34 AM 54.9 °F - 45.3 °F 70% 29.79 in 10.0 mi SW 17.3 mph 26.5 mph N/A   Drizzle
12:54 AM 52.7 °F - 47.5 °F 82% 29.78 in 7.0 mi SW 19.6 mph 29.9 mph N/A Rain Light Rain
1:15 AM 52.2 °F - 47.7 °F 85% 29.78 in 7.0 mi SW 17.3 mph 26.5 mph N/A Rain Rain
1:34 AM 51.8 °F - 48.4 °F 88% 29.77 in 7.0 mi SW 12.7 mph 23.0 mph N/A Rain Rain
1:54 AM 51.8 °F - 48.7 °F 89% 29.77 in 7.0 mi SW 15.0 mph 23.0 mph N/A Rain Light Rain
2:15 AM 51.8 °F - 49.1 °F 90% 29.77 in 7.0 mi SW 17.3 mph 25.3 mph N/A   Overcast
2:34 AM 52.0 °F - 49.1 °F 90% 29.77 in 7.0 mi WSW 15.0 mph 21.9 mph N/A   Overcast
2:54 AM 52.0 °F - 49.1 °F 90% 29.77 in 7.0 mi WSW 16.1 mph 21.9 mph N/A   Overcast
3:15 AM 51.8 °F - 48.6 °F 89% 29.76 in 7.0 mi WSW 13.8 mph - N/A   Overcast
3:34 AM 52.0 °F - 46.9 °F 83% 29.77 in 10.0 mi West 20.7 mph 28.8 mph N/A   Overcast
3:55 AM 46.6 °F - 39.9 °F 78% 29.78 in 10.0 mi West 20.7 mph 32.2 mph N/A   Scattered Clouds
4:15 AM 45.5 °F 38.9 °F 39.9 °F 81% 29.79 in 10.0 mi West 15.0 mph - N/A   Scattered Clouds
4:34 AM 44.4 °F 36.1 °F 38.1 °F 79% 29.79 in 10.0 mi West 20.7 mph 29.9 mph N/A   Mostly Cloudy
4:55 AM 42.4 °F 35.0 °F 36.5 °F 79% 29.80 in 10.0 mi West 15.0 mph 29.9 mph N/A   Overcast
5:15 AM 41.9 °F 34.0 °F 36.0 °F 79% 29.80 in 10.0 mi West 16.1 mph 21.9 mph N/A   Overcast
5:34 AM 41.2 °F 33.0 °F 35.4 °F 80% 29.81 in 10.0 mi West 16.1 mph 24.2 mph N/A   Mostly Cloudy
5:55 AM 40.1 °F 32.0 °F 33.4 °F 77% 29.81 in 10.0 mi West 15.0 mph 28.8 mph N/A   Mostly Cloudy
6:14 AM 39.6 °F 31.7 °F 33.4 °F 79% 29.82 in 10.0 mi West 13.8 mph 24.2 mph N/A   Mostly Cloudy
6:34 AM 39.2 °F 29.8 °F 32.0 °F 75% 29.82 in 10.0 mi West 18.4 mph 26.5 mph N/A   Overcast
6:55 AM 39.2 °F 30.5 °F 32.0 °F 75% 29.82 in 10.0 mi West 16.1 mph 20.7 mph N/A   Overcast
7:14 AM 39.2 °F 32.0 °F 32.0 °F 75% 29.82 in 10.0 mi West 11.5 mph - N/A   Overcast
7:34 AM 39.2 °F 29.8 °F 32.0 °F 75% 29.82 in 10.0 mi West 18.4 mph 24.2 mph N/A   Overcast
7:55 AM 39.2 °F 31.2 °F 32.0 °F 75% 29.82 in 10.0 mi West 13.8 mph 21.9 mph N/A   Overcast
8:14 AM 39.4 °F 29.2 °F 31.8 °F 74% 29.83 in 10.0 mi West 21.9 mph 27.6 mph N/A   Overcast
8:34 AM 39.4 °F 31.1 °F 32.0 °F 75% 29.82 in 10.0 mi West 15.0 mph - N/A   Overcast
8:55 AM 39.6 °F 31.3 °F 32.0 °F 74% 29.82 in 10.0 mi West 15.0 mph 20.7 mph N/A   Overcast
9:14 AM 39.6 °F 31.7 °F 32.0 °F 74% 29.82 in 10.0 mi West 13.8 mph 17.3 mph N/A   Overcast
9:34 AM 39.4 °F 30.7 °F 31.8 °F 74% 29.82 in 10.0 mi WSW 16.1 mph 24.2 mph N/A   Overcast
9:55 AM 38.3 °F 30.5 °F 32.0 °F 78% 29.82 in 10.0 mi SW 12.7 mph 18.4 mph N/A   Overcast
10:14 AM 38.5 °F 30.7 °F 32.0 °F 78% 29.82 in 10.0 mi WSW 12.7 mph - N/A   Overcast
10:35 AM 37.8 °F 27.1 °F 28.6 °F 69% 29.84 in 10.0 mi West 21.9 mph 33.4 mph N/A   Overcast
10:55 AM 36.5 °F 25.2 °F 27.1 °F 69% 29.85 in 10.0 mi West 23.0 mph 29.9 mph N/A   Overcast
11:14 AM 36.1 °F 24.7 °F 26.6 °F 68% 29.85 in 10.0 mi West 23.0 mph 28.8 mph N/A   Overcast
11:35 AM 35.2 °F 23.5 °F 25.5 °F 68% 29.85 in 10.0 mi West 23.0 mph 36.8 mph N/A   Overcast
11:54 AM 35.6 °F 25.2 °F 25.5 °F 67% 29.86 in 10.0 mi West 18.4 mph 28.8 mph N/A   Overcast
12:14 PM 34.5 °F 22.0 °F 25.3 °F 69% 29.86 in 10.0 mi West 25.3 mph 32.2 mph N/A   Overcast
12:35 PM 33.6 °F 21.3 °F 26.4 °F 75% 29.87 in 7.0 mi West 23.0 mph 29.9 mph N/A   Overcast
12:54 PM 32.0 °F 18.9 °F 26.6 °F 80% 29.88 in 4.0 mi West 24.2 mph 35.7 mph N/A   Haze
1:14 PM 32.0 °F 19.8 °F 26.1 °F 79% 29.89 in 10.0 mi West 20.7 mph 26.5 mph N/A   Overcast
1:35 PM 32.0 °F 20.5 °F 25.9 °F 78% 29.89 in 3.0 mi West 18.4 mph 29.9 mph N/A Snow Light Snow
1:54 PM 31.5 °F 20.1 °F 27.3 °F 85% 29.90 in 1.2 mi West 17.3 mph 25.3 mph N/A Snow Light Snow
2:14 PM 31.1 °F 19.7 °F 28.4 °F 90% 29.91 in 1.2 mi West 17.3 mph 21.9 mph N/A Snow Light Snow
2:35 PM 30.7 °F 18.8 °F 28.0 °F 90% 29.91 in 2.5 mi West 18.4 mph 25.3 mph N/A Snow Light Snow
2:54 PM 30.9 °F 20.7 °F 27.9 °F 88% 29.91 in 7.0 mi West 13.8 mph 19.6 mph N/A   Overcast
3:14 PM 31.6 °F 19.3 °F 25.5 °F 78% 29.92 in 10.0 mi West 20.7 mph 28.8 mph N/A   Overcast
3:35 PM 31.8 °F 20.6 °F 24.8 °F 75% 29.94 in 10.0 mi West 17.3 mph 27.6 mph N/A   Overcast
3:54 PM 31.8 °F 19.9 °F 24.3 °F 74% 29.95 in 10.0 mi West 19.6 mph 24.2 mph N/A   Overcast
4:14 PM 32.0 °F 20.5 °F 23.7 °F 71% 29.96 in 10.0 mi West 18.4 mph 27.6 mph N/A   Overcast
4:35 PM 31.8 °F 20.2 °F 23.7 °F 72% 29.97 in 10.0 mi West 18.4 mph 26.5 mph N/A   Overcast
4:54 PM 31.8 °F 20.6 °F 23.7 °F 72% 29.98 in 10.0 mi West 17.3 mph 26.5 mph N/A Snow Light Snow
5:15 PM 31.8 °F 19.3 °F 24.1 °F 73% 29.98 in 10.0 mi West 21.9 mph 27.6 mph N/A   Overcast
5:35 PM 32.0 °F 22.1 °F 24.1 °F 73% 29.99 in 10.0 mi West 13.8 mph 27.6 mph N/A   Overcast
5:54 PM 32.0 °F 20.8 °F 23.9 °F 72% 30.00 in 10.0 mi West 17.3 mph 23.0 mph N/A   Overcast
6:15 PM 32.0 °F 21.2 °F 23.5 °F 71% 30.01 in 10.0 mi West 16.1 mph 23.0 mph N/A   Overcast
6:34 PM 32.0 °F 20.8 °F 23.7 °F 71% 30.02 in 10.0 mi West 17.3 mph 23.0 mph N/A   Overcast
6:54 PM 32.0 °F 21.6 °F 23.7 °F 71% 30.02 in 10.0 mi West 15.0 mph 23.0 mph N/A   Overcast
7:15 PM 32.2 °F 21.8 °F 23.9 °F 72% 30.03 in 10.0 mi West 15.0 mph 23.0 mph N/A   Overcast
7:34 PM 32.2 °F 21.8 °F 24.4 °F 73% 30.03 in 10.0 mi West 15.0 mph - N/A   Overcast
7:54 PM 32.2 °F 21.4 °F 24.6 °F 74% 30.04 in 10.0 mi West 16.1 mph 21.9 mph N/A   Overcast
8:15 PM 32.0 °F 22.5 °F 24.6 °F 74% 30.04 in 10.0 mi West 12.7 mph 21.9 mph N/A   Overcast
8:34 PM 32.2 °F 22.3 °F 24.6 °F 74% 30.04 in 10.0 mi West 13.8 mph - N/A   Overcast
8:54 PM 32.2 °F 21.8 °F 24.8 °F 74% 30.04 in 10.0 mi West 15.0 mph 18.4 mph N/A   Overcast
9:14 PM 32.4 °F 22.1 °F 24.8 °F 74% 30.04 in 10.0 mi West 15.0 mph 21.9 mph N/A   Overcast
9:34 PM 32.9 °F 22.0 °F 24.6 °F 72% 30.04 in 10.0 mi WNW 17.3 mph 24.2 mph N/A   Overcast
9:55 PM 32.7 °F 23.9 °F 24.8 °F 73% 30.04 in 10.0 mi West 11.5 mph 20.7 mph N/A   Overcast
10:14 PM 32.5 °F 23.7 °F 24.8 °F 73% 30.05 in 10.0 mi West 11.5 mph 17.3 mph N/A   Overcast
10:35 PM 32.9 °F 24.1 °F 24.8 °F 72% 30.05 in 10.0 mi WNW 11.5 mph - N/A   Overcast
10:54 PM 32.9 °F 24.7 °F 24.4 °F 71% 30.05 in 10.0 mi WNW 10.4 mph 19.6 mph N/A   Overcast
11:14 PM 32.9 °F 24.7 °F 24.4 °F 71% 30.05 in 10.0 mi WNW 10.4 mph 24.2 mph N/A   Overcast
11:35 PM 32.9 °F 24.1 °F 24.4 °F 71% 30.05 in 10.0 mi NW 11.5 mph - N/A   Overcast
11:54 PM 32.9 °F 24.7 °F 24.6 °F 72% 30.06 in 10.0 mi NW 10.4 mph - N/A   Overcast